Punkttermin-Prognose für Emden
Modell: MOSMIX (Deutscher Wetterdienst)
Modelllaufzeit: 06 UTC
Aktualisierung: stündlich
Mittwoch - 17.07.2019
| Wetter - | Temperaturen | Wind | Niederschlag | Druck | Sonne
Zeit GZ | Bewölkung | TT MAX MIN TG TM | DD FF FX1 | RR1 RR24 | PPPP | SS1 SS24
02:00 Uhr | --- | --- --- --- --- --- | --- --- --- | --- | --- | ---
03:00 Uhr | --- | --- --- --- --- --- | --- --- --- | --- | --- | ---
04:00 Uhr | --- | --- --- --- --- --- | --- --- --- | --- | --- | ---
05:00 Uhr | --- | --- --- --- --- --- | --- --- --- | --- | --- | ---
06:00 Uhr | --- | --- --- --- --- --- | --- --- --- | --- | --- | ---
07:00 Uhr | --- | --- --- --- --- --- | --- --- --- | --- | --- | ---
08:00 Uhr | --- | --- --- --- --- --- | --- --- --- | --- | --- | ---
09:00 Uhr | bedeckt | 16 --- --- 17 --- | NW 9 --- | 0.0 | 1016 | 0.0
10:00 Uhr | bedeckt | 16 --- --- 18 --- | NW 9 --- | 0.0 | 1016 | 0.0
11:00 Uhr | stark bewölkt | 17 --- --- 20 --- | N 9 --- | 0.0 | 1016 | 0.1
12:00 Uhr | stark bewölkt | 17 --- --- 21 --- | NW 9 --- | 0.0 | 1016 | 0.2
13:00 Uhr | wolkig | 18 --- --- 22 --- | N 11 --- | 0.0 | 1016 | 0.2
14:00 Uhr | wolkig | 18 --- --- 23 --- | N 9 --- | 0.0 | 1016 | 0.3
15:00 Uhr | wolkig | 19 --- --- 23 --- | N 11 --- | 0.0 | 1016 | 0.4
16:00 Uhr | wolkig | 19 --- --- 23 --- | N 11 --- | 0.0 | 1016 | 0.5
17:00 Uhr | wolkig | 19 --- --- 23 --- | N 11 --- | 0.0 | 1015 | 0.6
18:00 Uhr | wolkig | 19 --- --- 22 --- | NO 11 --- | 0.0 | 1015 | 0.7
19:00 Uhr | wolkig | 19 --- --- 21 --- | NO 11 --- | 0.0 | 1014 | 0.7
20:00 Uhr | leicht bewölkt | 18 20 --- 19 --- | NO 11 --- | 0.0 | 1014 | 0.7
21:00 Uhr | leicht bewölkt | 18 --- --- 18 --- | NO 11 --- | 0.0 | 1014 | 0.5
22:00 Uhr | leicht bewölkt | 17 --- --- 16 --- | O 9 --- | 0.0 | 1014 | 0.3
23:00 Uhr | wolkig | 16 --- --- 15 --- | O 9 --- | 0.0 | 1014 | 0.0
00:00 Uhr | wolkig | 16 --- --- 14 --- | O 9 --- | 0.0 | 1014 | 0.0
Donnerstag - 18.07.2019
| Wetter - | Temperaturen | Wind | Niederschlag | Druck | Sonne
Zeit GZ | Bewölkung | TT MAX MIN TG TM | DD FF FX1 | RR1 RR24 | PPPP | SS1 SS24
01:00 Uhr | wolkig | 16 --- --- 14 --- | O 9 --- | 0.0 | 1014 | 0.0
02:00 Uhr | wolkig | 15 --- --- 13 --- | SO 9 --- | 0.0 | 1014 | 0.0
03:00 Uhr | wolkig | 15 --- --- 13 --- | SO 9 --- | 0.0 | 1013 | 0.0
04:00 Uhr | wolkig | 15 --- --- 13 --- | SO 11 --- | 0.0 | 1013 | 0.0
05:00 Uhr | wolkig | 15 --- --- 13 --- | SO 11 --- | 0.0 | 1012 | 0.0
06:00 Uhr | wolkig | 15 --- --- 13 --- | SO 11 --- | 0.0 | 1012 | 0.1
07:00 Uhr | wolkig | 15 --- --- 14 --- | SO 11 --- | 0.0 | 1012 | 0.2
08:00 Uhr | wolkig | 16 --- 14 16 --- | SO 13 --- | 0.0 | 1012 | 0.3
09:00 Uhr | wolkig | 17 --- --- 18 --- | SO 13 --- | 0.0 | 1011 | 0.5
10:00 Uhr | wolkig | 18 --- --- 21 --- | SO 13 --- | 0.0 | 1011 | 0.5
11:00 Uhr | wolkig | 20 --- --- 23 --- | SO 13 --- | 0.0 | 1011 | 0.5
12:00 Uhr | wolkig | 21 --- --- 24 --- | S 15 --- | 0.0 | 1010 | 0.6
13:00 Uhr | wolkig | 22 --- --- 26 --- | SO 13 --- | 0.0 | 1010 | 0.6
14:00 Uhr | wolkig | 23 --- --- 26 --- | S 13 --- | 0.0 | 1010 | 0.6
15:00 Uhr | wolkig | 23 --- --- 26 --- | S 13 --- | 0.0 | 1010 | 0.6
16:00 Uhr | wolkig | 23 --- --- 26 --- | SW 13 --- | 0.0 | 1010 | 0.6
17:00 Uhr | wolkig | 22 --- --- 24 --- | W 13 --- | 0.0 | 1010 | 0.4
18:00 Uhr | wolkig | 21 --- --- 22 --- | NW 13 --- | 0.0 | 1010 | 0.3
19:00 Uhr | stark bewölkt | 20 --- --- 21 --- | NW 13 --- | 0.0 | 1010 | 0.2
20:00 Uhr | stark bewölkt | 19 25 --- 20 --- | W 13 --- | 0.0 | 1010 | 0.2
21:00 Uhr | stark bewölkt | 19 --- --- 18 --- | W 13 --- | 0.0 | 1011 | 0.1
22:00 Uhr | stark bewölkt | 18 --- --- 17 --- | W 11 --- | 0.0 | 1011 | 0.1
23:00 Uhr | stark bewölkt | 18 --- --- 17 | SW 11 --- | 0.0 | 1011 | 0.0
00:00 Uhr | stark bewölkt | 17 --- --- 16 18 | SW 11 --- | 0.0 0.0 | 1012 | 0.0 6.2
Freitag - 19.07.2019
| Wetter - | Temperaturen | Wind | Niederschlag | Druck | Sonne
Zeit GZ | Bewölkung | TT MAX MIN TG TM | DD FF FX1 | RR1 RR24 | PPPP | SS1 SS24
01:00 Uhr | stark bewölkt | 17 --- --- 16 --- | SW 11 --- | 0.0 | 1011 | 0.0
02:00 Uhr | stark bewölkt | 17 --- --- 16 --- | SW 9 --- | 0.0 | 1012 | 0.0
03:00 Uhr | stark bewölkt | 17 --- --- 16 --- | SW 9 --- | 0.0 | 1012 | 0.0
04:00 Uhr | stark bewölkt | 17 --- --- 16 --- | SW 11 --- | 0.0 | 1012 | 0.0
05:00 Uhr | stark bewölkt | 17 --- --- 16 --- | SW 11 --- | 0.0 | 1012 | 0.0
06:00 Uhr | stark bewölkt | 17 --- --- 16 --- | SW 11 --- | 0.0 | 1012 | 0.0
07:00 Uhr | stark bewölkt | 17 --- --- 16 --- | SW 13 --- | 0.0 | 1012 | 0.1
08:00 Uhr | wolkig | 17 --- 16 17 --- | SW 13 --- | 0.0 | 1013 | 0.2
09:00 Uhr | wolkig | 18 --- --- 19 --- | SW 15 --- | 0.0 | 1013 | 0.3
10:00 Uhr | wolkig | 18 --- --- 20 --- | SW 13 --- | 0.0 | 1013 | 0.4
11:00 Uhr | wolkig | 20 --- --- 22 --- | SW 13 --- | 0.0 | 1014 | 0.5
12:00 Uhr | wolkig | 20 --- --- 24 --- | W 13 --- | 0.0 | 1014 | 0.5
13:00 Uhr | wolkig | 21 --- --- 25 --- | W 13 --- | 0.0 | 1014 | 0.6
14:00 Uhr | wolkig | 22 --- --- 26 --- | W 13 --- | 0.0 | 1014 | 0.7
15:00 Uhr | wolkig | 22 --- --- 26 --- | NW 13 --- | 0.0 | 1014 | 0.7
16:00 Uhr | wolkig | 22 --- --- 26 --- | NW 15 --- | 0.0 | 1014 | 0.7
17:00 Uhr | wolkig | 21 --- --- 25 --- | N 13 --- | 0.0 | 1014 | 0.7
18:00 Uhr | wolkig | 21 --- --- 24 --- | N 13 --- | 0.0 | 1013 | 0.6
19:00 Uhr | wolkig | 20 --- --- 23 --- | N 13 --- | 0.0 | 1013 | 0.5
20:00 Uhr | wolkig | 20 23 --- 21 --- | NO 13 --- | 0.0 | 1013 | 0.4
21:00 Uhr | wolkig | 19 --- --- 19 --- | O 13 --- | 0.0 | 1014 | 0.2
22:00 Uhr | stark bewölkt | 19 --- --- 18 --- | O 11 --- | 0.0 | 1014 | 0.1
23:00 Uhr | stark bewölkt | 18 --- --- 17 | O 13 --- | 0.0 | 1013 | 0.0
00:00 Uhr | stark bewölkt | 18 --- --- 17 19 | SO 11 --- | 0.0 0.0 | 1013 | 0.0 7.2
Samstag - 20.07.2019
| Wetter - | Temperaturen | Wind | Niederschlag | Druck | Sonne
Zeit GZ | Bewölkung | TT MAX MIN TG TM | DD FF FX3 | RR3 RR24 | PPPP | SS3 SS24
02:00 Uhr | stark bewölkt | 18 --- --- 17 --- | SO 13 --- | 0.0 | 1013 | 0.0
05:00 Uhr | stark bewölkt | 17 --- --- 16 --- | SO 13 --- | 0.0 | 1011 | 0.0
08:00 Uhr | stark bewölkt | 18 --- 16 18 --- | SO 15 --- | 0.0 | 1011 | 0.2
11:00 Uhr | wolkig | 21 --- --- 22 --- | S 15 --- | 0.0 | 1010 | 0.7
14:00 Uhr | stark bewölkt | 22 --- --- 24 --- | S 17 --- | 0.0 | 1010 | 1.0
17:00 Uhr | leichter Regen | 21 --- --- 23 --- | SW 17 --- | 1.5 | 1011 | 0.7
20:00 Uhr | wolkig | 20 23 --- 20 --- | SW 15 --- | 0.0 | 1012 | 0.8
23:00 Uhr | wolkig | 19 --- --- 18 19 | SW 15 --- | 0.0 1.5 | 1012 | 0.3 3.7
Sonntag - 21.07.2019
| Wetter - | Temperaturen | Wind | Niederschlag | Druck | Sonne
Zeit GZ | Bewölkung | TT MAX MIN TG TM | DD FF FX3 | RR3 RR24 | PPPP | SS3 SS24
02:00 Uhr | wolkig | 18 --- --- 17 --- | SW 17 --- | 0.0 | 1013 | 0.0
05:00 Uhr | wolkig | 18 --- --- 17 --- | SW 18 --- | 0.0 | 1013 | 0.0
08:00 Uhr | wolkig | 18 --- 17 18 --- | SW 18 --- | 0.0 | 1014 | 0.5
11:00 Uhr | wolkig | 19 --- --- 21 --- | SW 18 --- | 0.0 | 1015 | 1.4
14:00 Uhr | wolkig | 21 --- --- 24 --- | W 18 --- | 0.0 | 1016 | 1.6
17:00 Uhr | wolkig | 21 --- --- 23 --- | W 20 --- | 0.0 | 1018 | 1.7
20:00 Uhr | wolkig | 20 22 --- 21 --- | NW 18 --- | 0.0 | 1019 | 1.7
23:00 Uhr | wolkig | 18 --- --- 18 19 | W 17 --- | 0.0 0.0 | 1019 | 0.6 7.4
Montag - 22.07.2019
| Wetter - | Temperaturen | Wind | Niederschlag | Druck | Sonne
Zeit GZ | Bewölkung | TT MAX MIN TG TM | DD FF FX3 | RR3 RR24 | PPPP | SS3 SS24
02:00 Uhr | wolkig | 18 --- --- 17 --- | SW 15 --- | 0.0 | 1019 | 0.0
05:00 Uhr | wolkig | 18 --- --- 16 --- | SW 15 --- | 0.0 | 1019 | 0.0
08:00 Uhr | wolkig | 18 --- 17 19 --- | S 15 --- | 0.0 | 1020 | 0.6
11:00 Uhr | wolkig | 21 --- --- 23 --- | SW 15 --- | 0.0 | 1020 | 1.4
14:00 Uhr | wolkig | 22 --- --- 27 --- | SW 15 --- | 0.0 | 1021 | 1.9
17:00 Uhr | leicht bewölkt | 23 --- --- 25 --- | W 17 --- | 0.0 | 1021 | 2.0
20:00 Uhr | wolkig | 21 24 --- 22 --- | NW 17 --- | 0.0 | 1021 | 1.7
23:00 Uhr | wolkig | 20 --- --- 19 20 | W 17 --- | 0.0 0.0 | 1021 | 0.7 8.3
Dienstag - 23.07.2019
| Wetter - | Temperaturen | Wind | Niederschlag | Druck | Sonne
Zeit GZ | Bewölkung | TT MAX MIN TG TM | DD FF FX3 | RR3 RR24 | PPPP | SS3 SS24
02:00 Uhr | wolkig | 19 --- --- 18 --- | SO 17 --- | 0.0 | 1020 | 0.0
05:00 Uhr | wolkig | 19 --- --- 18 --- | S 15 --- | 0.0 | 1019 | 0.0
08:00 Uhr | leicht bewölkt | 20 --- 18 20 --- | SO 15 --- | 0.0 | 1019 | 0.9
11:00 Uhr | leicht bewölkt | 23 --- --- 26 --- | SO 15 --- | 0.0 | 1018 | 2.0
14:00 Uhr | leicht bewölkt | 25 --- --- 30 --- | O 15 --- | 0.0 | 1019 | 2.5
17:00 Uhr | leicht bewölkt | 26 --- --- 28 --- | NO 17 --- | 0.0 | 1018 | 2.6
20:00 Uhr | leicht bewölkt | 24 27 --- 24 --- | NO 18 --- | 0.0 | 1018 | 2.3
23:00 Uhr | leicht bewölkt | 22 --- --- 20 22 | NO 17 --- | 0.0 0.0 | 1018 | 0.8 11.2
Mittwoch - 24.07.2019
| Wetter - | Temperaturen | Wind | Niederschlag | Druck | Sonne
Zeit GZ | Bewölkung | TT MAX MIN TG TM | DD FF FX3 | RR3 RR24 | PPPP | SS3 SS24
02:00 Uhr | wolkig | 21 --- --- 20 --- | O 17 --- | 0.0 | 1017 | 0.0
05:00 Uhr | leicht bewölkt | 20 --- --- 19 --- | SO 17 --- | 0.0 | 1016 | 0.0
08:00 Uhr | wolkig | 21 --- 20 21 --- | SO 17 --- | 0.0 | 1017 | 0.8
11:00 Uhr | leicht bewölkt | 24 --- --- 27 --- | SO 17 --- | 0.0 | 1017 | 2.1
14:00 Uhr | leicht bewölkt | 25 --- --- 30 --- | NO 18 --- | 0.0 | 1017 | 2.5
17:00 Uhr | leicht bewölkt | 25 --- --- 29 --- | NO 20 --- | 0.0 | 1016 | 2.9
20:00 Uhr | leicht bewölkt | 24 27 --- 24 --- | NO 18 --- | 0.0 | 1016 | 2.2
23:00 Uhr | wolkig | 22 --- --- 20 23 | NO 18 --- | 0.0 0.0 | 1018 | 0.7 11.2
Donnerstag - 25.07.2019
| Wetter - | Temperaturen | Wind | Niederschlag | Druck | Sonne
Zeit GZ | Bewölkung | TT MAX MIN TG TM | DD FF FX3 | RR3 RR24 | PPPP | SS3 SS24
02:00 Uhr | wolkig | 21 --- --- 20 --- | NO 15 --- | 0.0 | 1017 | 0.0
05:00 Uhr | wolkig | 21 --- --- 19 --- | O 17 --- | 0.0 | 1017 | 0.0
08:00 Uhr | leicht bewölkt | 21 --- 20 21 --- | O 18 --- | 0.0 | 1017 | 1.1
11:00 Uhr | wolkig | 24 --- --- 27 --- | O 17 --- | 0.0 | 1016 | 2.2
14:00 Uhr | leicht bewölkt | 26 --- --- 30 --- | NO 18 --- | 0.0 | 1016 | 2.7
17:00 Uhr | leicht bewölkt | 25 --- --- 29 --- | NO 20 --- | 0.0 | 1015 | 2.8
20:00 Uhr | wolkig | 24 28 --- 24 --- | NO 18 --- | 0.0 | 1016 | 1.8
23:00 Uhr | wolkig | 22 --- --- 21 23 | O 18 --- | 0.0 0.0 | 1016 | 0.6 11.2
Freitag - 26.07.2019
| Wetter - | Temperaturen | Wind | Niederschlag | Druck | Sonne
Zeit GZ | Bewölkung | TT MAX MIN TG TM | DD FF FX3 | RR3 RR24 | PPPP | SS3 SS24
02:00 Uhr | wolkig | 21 --- --- 20 --- | O 17 --- | 0.0 | 1016 | 0.0
05:00 Uhr | wolkig | 20 --- --- 19 --- | O 17 --- | 0.0 | 1015 | 0.0
08:00 Uhr | wolkig | 21 --- 20 21 --- | NW 18 --- | 0.0 | 1014 | 0.8
11:00 Uhr | wolkig | 24 --- --- 27 --- | NW 17 --- | 0.0 | 1015 | 2.1
14:00 Uhr | wolkig | 24 --- --- 30 --- | N 18 --- | 0.0 | 1015 | 2.5
17:00 Uhr | wolkig | 24 --- --- 28 --- | N 20 --- | 0.0 | 1015 | 2.5
20:00 Uhr | wolkig | 22 26 --- 23 --- | N 20 --- | 0.0 | 1016 | 2.0
23:00 Uhr | wolkig | 21 --- --- 20 22 | N 18 --- | 0.0 0.0 | 1016 | 0.7 10.5
Samstag - 27.07.2019
| Wetter - | Temperaturen | Wind | Niederschlag | Druck | Sonne
Zeit GZ | Bewölkung | TT MAX MIN TG TM | DD FF FX3 | RR3 RR24 | PPPP | SS3 SS24
02:00 Uhr | wolkig | 20 --- --- 18 --- | NO 18 --- | 0.0 | 1016 | 0.0
05:00 Uhr | wolkig | 20 --- --- 18 --- | N 18 --- | 0.0 | 1016 | 0.0
08:00 Uhr | wolkig | 19 --- 18 19 --- | W 17 --- | 0.0 | 1014 | 0.6
---:00 Uhr | --- | --- --- --- --- --- | --- --- --- | --- | --- | ---
---:00 Uhr | --- | --- --- --- --- --- | --- --- --- | --- | --- | ---
---:00 Uhr | --- | --- --- --- --- --- | --- --- --- | --- | --- | ---
---:00 Uhr | --- | --- --- --- --- --- | --- --- --- | --- | --- | ---
---:00 Uhr | --- | --- --- --- --- --- | --- --- --- | --- --- | --- | ---


Wetter : Wetter/Bewölkung zum Termin (aktuelle Stunde) TT : Lufttemperatur in Grad Celsius zum Termin MAX : Maximum Lufttemperatur in Grad Celsius letzte 12 Stunden MIN : Minimum Lufttemperatur der vergangenen Nacht in Grad Celsius letzte 12 Stunden TG : Temperatur in 5cm überm Erdboden TM : Tagesmittel Lufttemperatur in Grad Celsius letzte 24 Stunden DD : Windrichtung zum Termin FF : Windgeschwindigkeit zum Termin FX1 : höchste Windspitze im Bezugszeitraum letzte 1 Stunde in km/h FX3 : höchste Windspitze im Bezugszeitraum letzte 3 Stunden in km/h PPPP : reduzierter Luftdruck auf Meereshöhe in hPa zum Termin RR1 : Niederschlagsmenge im Bezugszeitraum letzte 1 Stunde in mm = l/qm RR3 : Niederschlagsmenge im Bezugszeitraum letzte 3 Stunden in mm = l/qm RR24 : Niederschlagsmenge im Bezugszeitraum letzte 24 Stunden in mm = l/qm SS1 : Sonnenscheindauer letzte 1 Stunde SS3 : Sonnenscheindauer letzte 3 Stunden SS24 : Sonnenscheindauer letzte 24 Stunden --- : Wert nicht vorhanden